Tracking 35331 objects as of 13-Sep-2026
HD Live streaming from Space Station
objects crossing your sky now

STARLINK-5542

Track STARLINK-5542 now!
10-day predictions
STARLINK-5542 is classified as:


NORAD ID: 57075
Int'l Code: 2023-088AD
Launch date: June 22, 2023
Source: United States (US)
Launch site: AIR FORCE WESTERN TEST RANGE (AFWTR)
Your satellite tracking list
Your tracking list is empty




NASA's NSSDC Master Catalog

Two Line Element Set (TLE):
1 57075U 23088AD  26256.01430184  .00000567  00000-0  30128-4 0  9993
2 57075  43.0045 117.8393 0001708 271.0659  88.9998 15.27577919179157
Source of the keplerian elements: AFSPC